When you browse on this site, cookies collect data to enhance your experience and personalize the content and advertising you see.
Visit our Privacy Policy to learn more. By continuing to use the site, you agree to this use of cookies and data.
  • Em Portugal
  • Lista de países
  • Para 7 dias
  • Temperatura da água
  • Mapa do tempo
  • Widgets de tempo
  • user-avatar
    Iniciar Sessão

    Previsão horária em Vaduz

    Hoje, 7 Abril, Terça-feira

    Tempo Temperatura Precipitação Vento Pressão Humidade
    00:00 +7°C° 0 mm 0 m/s 713 mmHg 82%
    01:00 +6°C° 0 mm 0 m/s 713 mmHg 84%
    02:00 +6°C° 0 mm 0 m/s 713 mmHg 85%
    03:00 +5°C° 0 mm 0 m/s 713 mmHg 85%
    04:00 +5°C° 0 mm 0 m/s 713 mmHg 85%
    05:00 +5°C° 0 mm 0 m/s 713 mmHg 83%
    06:00 +6°C° 0 mm 0 m/s 714 mmHg 81%
    07:00 +6°C° 0 mm 0 m/s 714 mmHg 79%
    08:00 +10°C° 0 mm 1 m/s 714 mmHg 72%
    09:00 +12°C° 0 mm 2 m/s 714 mmHg 64%
    10:00 +15°C° 0 mm 2 m/s 714 mmHg 57%
    11:00 +16°C° 0 mm 3 m/s 714 mmHg 53%
    12:00 +17°C° 0 mm 3 m/s 714 mmHg 49%
    13:00 +19°C° 0 mm 4 m/s 714 mmHg 45%
    14:00 +18°C° 0 mm 4 m/s 714 mmHg 46%
    15:00 +18°C° 0 mm 4 m/s 713 mmHg 47%
    16:00 +18°C° 0 mm 4 m/s 713 mmHg 48%
    17:00 +15°C° 0 mm 4 m/s 713 mmHg 56%
    18:00 +13°C° 0 mm 3 m/s 713 mmHg 64%
    19:00 +12°C° 0 mm 3 m/s 712 mmHg 72%
    20:00 +10°C° 0 mm 3 m/s 712 mmHg 76%
    21:00 +9°C° 0 mm 2 m/s 713 mmHg 79%
    22:00 +8°C° 0 mm 2 m/s 713 mmHg 83%
    23:00 +9°C° 0 mm 1 m/s 713 mmHg 85%

    Amanhã, 8 Abril, Quarta-feira

    Tempo Temperatura Precipitação Vento Pressão Humidade
    00:00 +8°C° 0 mm 1 m/s 713 mmHg 87%
    01:00 +7°C° 0 mm 1 m/s 713 mmHg 89%
    02:00 +7°C° 0 mm 1 m/s 712 mmHg 89%
    03:00 +5°C° 0 mm 0 m/s 712 mmHg 89%
    04:00 +5°C° 0 mm 0 m/s 712 mmHg 90%
    05:00 +5°C° 0 mm 0 m/s 712 mmHg 88%
    06:00 +6°C° 0 mm 0 m/s 712 mmHg 86%
    07:00 +6°C° 0 mm 0 m/s 712 mmHg 85%
    08:00 +10°C° 0 mm 1 m/s 712 mmHg 76%
    09:00 +12°C° 0 mm 1 m/s 712 mmHg 68%
    10:00 +15°C° 0 mm 2 m/s 712 mmHg 60%
    11:00 +16°C° 0 mm 1 m/s 712 mmHg 57%
    12:00 +19°C° 0 mm 1 m/s 712 mmHg 53%
    13:00 +20°C° 0 mm 1 m/s 712 mmHg 49%
    14:00 +20°C° 0 mm 1 m/s 712 mmHg 48%
    15:00 +20°C° 0 mm 1 m/s 712 mmHg 47%
    16:00 +20°C° 0 mm 1 m/s 711 mmHg 45%
    17:00 +18°C° 0 mm 1 m/s 711 mmHg 55%
    18:00 +15°C° 0 mm 1 m/s 710 mmHg 65%
    19:00 +12°C° 0 mm 1 m/s 710 mmHg 75%
    20:00 +11°C° 0 mm 1 m/s 710 mmHg 79%
    21:00 +10°C° 0 mm 1 m/s 710 mmHg 82%
    22:00 +9°C° 0 mm 1 m/s 711 mmHg 86%
    23:00 +9°C° 0 mm 1 m/s 711 mmHg 87%

    Depois de amanhã, 9 Abril, Quinta-feira

    Tempo Temperatura Precipitação Vento Pressão Humidade
    00:00 +9°C° 0 mm 1 m/s 710 mmHg 88%
    01:00 +7°C° 0 mm 0 m/s 710 mmHg 89%
    02:00 +7°C° 0 mm 0 m/s 710 mmHg 90%
    03:00 +6°C° 0 mm 0 m/s 710 mmHg 90%
    04:00 +6°C° 0 mm 0 m/s 710 mmHg 91%
    05:00 +7°C° 0 mm 0 m/s 710 mmHg 89%
    06:00 +7°C° 0 mm 0 m/s 710 mmHg 88%
    07:00 +8°C° 0 mm 0 m/s 711 mmHg 87%
    08:00 +10°C° 0 mm 0 m/s 711 mmHg 78%
    09:00 +13°C° 0 mm 0 m/s 711 mmHg 70%
    10:00 +15°C° 0 mm 0 m/s 711 mmHg 61%
    11:00 +18°C° 0.1 mm 1 m/s 711 mmHg 58%
    12:00 +18°C° 0.1 mm 1 m/s 711 mmHg 55%
    13:00 +19°C° 0.1 mm 1 m/s 711 mmHg 52%
    14:00 +19°C° 0 mm 1 m/s 711 mmHg 52%
    15:00 +18°C° 0 mm 2 m/s 711 mmHg 52%
    16:00 +18°C° 0 mm 2 m/s 710 mmHg 52%
    17:00 +16°C° 0 mm 2 m/s 710 mmHg 60%
    18:00 +14°C° 0 mm 2 m/s 710 mmHg 68%
    19:00 +12°C° 0 mm 1 m/s 710 mmHg 76%
    20:00 +11°C° 0 mm 1 m/s 710 mmHg 79%
    21:00 +10°C° 0 mm 1 m/s 710 mmHg 81%
    22:00 +9°C° 0 mm 1 m/s 711 mmHg 84%
    23:00 +9°C° 0 mm 1 m/s 711 mmHg 84%

    10 Abril, Sexta-feira

    Tempo Temperatura Precipitação Vento Pressão Humidade
    00:00 +8°C° 0 mm 1 m/s 711 mmHg 85%
    01:00 +8°C° 0 mm 1 m/s 710 mmHg 86%
    02:00 +7°C° 0 mm 1 m/s 710 mmHg 87%
    03:00 +7°C° 0 mm 1 m/s 710 mmHg 87%
    04:00 +6°C° 0 mm 1 m/s 710 mmHg 88%
    05:00 +7°C° 0 mm 1 m/s 710 mmHg 86%
    06:00 +8°C° 0 mm 1 m/s 710 mmHg 84%
    07:00 +8°C° 0 mm 1 m/s 710 mmHg 82%
    08:00 +11°C° 0 mm 1 m/s 711 mmHg 74%
    09:00 +13°C° 0 mm 1 m/s 711 mmHg 66%
    10:00 +16°C° 0 mm 2 m/s 711 mmHg 58%
    11:00 +17°C° 0 mm 2 m/s 711 mmHg 54%
    12:00 +18°C° 0 mm 2 m/s 711 mmHg 51%
    13:00 +19°C° 0 mm 2 m/s 711 mmHg 48%
    14:00 +19°C° 0 mm 2 m/s 710 mmHg 48%
    15:00 +19°C° 0 mm 2 m/s 710 mmHg 49%
    16:00 +19°C° 0 mm 2 m/s 710 mmHg 49%
    17:00 +17°C° 0 mm 2 m/s 709 mmHg 59%
    18:00 +15°C° 0 mm 2 m/s 709 mmHg 68%
    19:00 +13°C° 0 mm 2 m/s 709 mmHg 78%
    20:00 +12°C° 0 mm 1 m/s 709 mmHg 81%
    21:00 +11°C° 0 mm 1 m/s 709 mmHg 84%
    22:00 +10°C° 0 mm 1 m/s 709 mmHg 88%
    23:00 +9°C° 0 mm 1 m/s 709 mmHg 89%

    11 Abril, Sábado

    Tempo Temperatura Precipitação Vento Pressão Humidade
    00:00 +9°C° 0 mm 1 m/s 709 mmHg 89%
    01:00 +7°C° 0 mm 0 m/s 709 mmHg 90%
    02:00 +7°C° 0 mm 0 m/s 709 mmHg 90%
    03:00 +7°C° 0 mm 0 m/s 709 mmHg 91%
    04:00 +6°C° 0 mm 0 m/s 708 mmHg 91%
    05:00 +7°C° 0 mm 0 m/s 709 mmHg 89%
    06:00 +8°C° 0 mm 0 m/s 709 mmHg 88%
    07:00 +9°C° 0 mm 0 m/s 709 mmHg 86%
    08:00 +12°C° 0 mm 1 m/s 709 mmHg 78%
    09:00 +14°C° 0 mm 1 m/s 709 mmHg 69%
    10:00 +17°C° 0 mm 2 m/s 709 mmHg 61%
    11:00 +18°C° 0 mm 2 m/s 709 mmHg 55%
    12:00 +19°C° 0 mm 2 m/s 709 mmHg 48%
    13:00 +20°C° 0 mm 2 m/s 709 mmHg 42%
    14:00 +20°C° 0 mm 2 m/s 709 mmHg 42%
    15:00 +20°C° 0 mm 2 m/s 709 mmHg 42%
    16:00 +20°C° 0 mm 2 m/s 708 mmHg 41%
    17:00 +19°C° 0 mm 1 m/s 708 mmHg 49%
    18:00 +16°C° 0 mm 1 m/s 708 mmHg 57%
    19:00 +14°C° 0 mm 1 m/s 707 mmHg 65%
    20:00 +12°C° 0 mm 1 m/s 707 mmHg 67%
    21:00 +10°C° 0 mm 0 m/s 708 mmHg 69%
    22:00 +9°C° 0 mm 0 m/s 708 mmHg 72%
    23:00 +9°C° 0 mm 0 m/s 708 mmHg 73%

    12 Abril, Domingo

    Tempo Temperatura Precipitação Vento Pressão Humidade
    00:00 +8°C° 0 mm 0 m/s 707 mmHg 74%
    01:00 +8°C° 0 mm 0 m/s 707 mmHg 75%
    02:00 +7°C° 0 mm 0 m/s 707 mmHg 77%
    03:00 +7°C° 0 mm 0 m/s 707 mmHg 78%
    04:00 +8°C° 0 mm 1 m/s 706 mmHg 79%
    05:00 +8°C° 0 mm 0 m/s 706 mmHg 78%
    06:00 +8°C° 0 mm 0 m/s 706 mmHg 78%
    07:00 +9°C° 0 mm 0 m/s 706 mmHg 77%
    08:00 +11°C° 0 mm 0 m/s 706 mmHg 70%
    09:00 +14°C° 0 mm 1 m/s 706 mmHg 63%
    10:00 +16°C° 0 mm 1 m/s 706 mmHg 57%
    11:00 +18°C° 0 mm 1 m/s 705 mmHg 54%
    12:00 +18°C° 0 mm 1 m/s 705 mmHg 52%
    13:00 +18°C° 0 mm 2 m/s 705 mmHg 50%
    14:00 +20°C° 0 mm 1 m/s 704 mmHg 49%
    15:00 +20°C° 0 mm 1 m/s 704 mmHg 48%
    16:00 +20°C° 0 mm 1 m/s 703 mmHg 47%
    17:00 +18°C° 0.1 mm 1 m/s 703 mmHg 56%
    18:00 +15°C° 0.1 mm 1 m/s 702 mmHg 65%
    19:00 +13°C° 0.1 mm 1 m/s 702 mmHg 74%
    20:00 +12°C° 0.4 mm 1 m/s 702 mmHg 78%
    21:00 +11°C° 0.4 mm 1 m/s 702 mmHg 81%
    22:00 +11°C° 0.4 mm 1 m/s 702 mmHg 84%
    23:00 +10°C° 0 mm 1 m/s 703 mmHg 84%
    Mostrar mais